Wind_Speed
15 15 15 16 16 16 16 16 16 16 16 16 16 17 17 17 17 17 17 17 17 17 17 16 17 17 16 17 16 16 16 16 16 16 16 16 17 17 17 18 18 18 19
17 16 16 16 17 17 17 16 16 17 17 17 17 18 18 18 18 18 19 19 19 18 18 17 17 17 17 17 17 17 17 17 17 18 18 17 18 18 19 18 19 19 20
18 18 18 17 17 18 17 16 16 16 17 18 18 18 18 19 19 20 20 20 20 20 20 20 19 19 19 19 18 18 18 18 19 19 19 19 19 19 19 20 20 21 21
19 19 19 19 19 19 19 18 18 18 18 18 19 20 20 21 21 21 21 20 20 21 21 21 21 21 20 20 20 19 20 20 20 21 21 21 21 21 21 21 22 22 22
20 20 20 20 20 20 20 20 20 20 20 20 20 21 22 22 21 20 20 21 21 21 22 22 22 22 22 22 22 21 21 21 21 21 21 22 22 22 22 23 23 23 23
20 20 21 21 20 20 20 20 21 22 21 21 21 22 22 22 22 22 22 22 22 22 22 22 22 23 23 22 23 23 23 22 22 22 22 23 22 23 23 23 24 24 24
22 21 21 22 22 22 22 21 22 22 22 23 23 23 23 24 24 24 24 24 24 23 23 23 24 24 23 23 24 24 23 23 23 23 24 23 24 23 23 23 24 24 24
24 23 23 23 23 23 23 23 24 24 24 24 25 25 25 25 25 25 26 26 25 25 25 25 25 25 25 25 25 25 25 25 24 24 24 24 24 24 24 24 25 25 25
25 25 25 25 25 25 25 25 25 25 26 26 25 26 26 26 26 27 27 27 27 27 27 27 27 27 26 26 26 26 26 26 26 26 25 25 25 26 26 26 26 26 27
25 26 26 26 27 26 26 26 27 27 27 26 27 27 27 28 28 28 28 28 28 29 29 29 28 28 28 28 28 27 27 27 28 28 27 27 26 27 27 27 28 28 28
26 27 27 28 28 28 28 28 28 29 28 28 28 28 28 28 28 29 28 28 29 30 30 30 30 29 29 29 29 29 28 29 29 29 29 28 28 28 29 29 29 30 29
27 28 28 28 28 28 28 29 30 30 30 30 30 29 30 30 30 30 30 30 30 31 31 31 31 31 30 30 31 30 30 30 30 30 31 30 30 30 30 30 30 31 30
29 29 29 29 29 29 29 30 31 31 31 31 31 31 31 31 31 31 31 32 32 32 33 33 33 32 32 33 33 32 32 32 32 32 32 32 32 31 31 31 32 32 31
30 30 30 30 30 30 31 32 32 31 32 32 32 32 32 33 33 34 34 34 34 34 34 34 34 34 34 35 35 34 34 34 34 34 34 33 33 33 32 32 33 33 32
31 31 31 32 32 32 32 33 33 33 34 34 35 35 34 35 36 36 36 36 36 36 36 36 36 35 35 35 35 35 34 34 35 35 35 34 34 34 33 33 34 34 33
32 32 33 33 33 33 34 34 34 34 35 36 36 36 36 37 37 37 37 37 37 37 36 36 36 36 36 36 36 35 35 35 35 34 34 34 34 34 34 34 34 34 34
33 33 34 35 35 35 35 35 35 35 36 36 37 37 37 37 37 37 37 36 36 36 36 35 35 36 36 36 36 36 36 35 35 34 34 35 35 35 35 35 35 34 34
34 35 35 36 36 36 36 35 35 35 36 36 37 36 36 36 37 37 37 36 36 36 36 36 36 36 37 37 37 37 36 36 36 35 36 36 36 36 36 36 35 35 35
35 35 36 36 36 36 36 36 36 36 36 36 35 36 36 36 36 36 37 37 36 36 37 36 37 37 37 37 37 37 37 37 36 36 37 37 37 37 37 37 37 37 36
35 36 36 36 36 36 36 36 36 36 36 36 35 35 35 35 35 36 36 36 36 36 37 37 37 38 38 38 38 38 38 38 37 38 38 38 37 37 37 37 38 37 37
36 36 37 37 38 38 38 37 37 37 36 36 36 36 36 36 36 36 36 36 36 37 37 38 38 38 39 39 39 38 38 38 38 38 38 37 37 37 37 38 38 38 37
37 38 38 39 39 38 38 37 37 37 37 37 37 37 37 37 36 36 36 36 36 37 37 38 38 38 38 38 38 38 38 38 38 38 38 38 37 38 37 37 37 37 37
38 39 40 40 40 39 39 38 38 38 38 38 38 37 37 37 37 37 37 37 37 37 38 37 37 36 36 37 38 38 38 38 38 38 38 38 38 38 38 38 37 37 37
39 40 40 40 40 39 39 39 38 38 38 38 37 37 37 37 37 37 37 38 38 37 37 37 36 36 37 37 37 38 38 38 37 37 38 37 37 37 37 37 37 37 37
39 39 40 40 39 38 38 38 38 38 38 37 37 37 37 37 37 37 37 37 37 37 36 36 36 36 36 36 37 37 37 37 37 37 37 37 37 37 37 37 36 36 37
39 39 39 39 38 38 38 37 37 37 37 37 37 36 36 37 37 37 37 37 37 36 35 34 35 35 35 35 36 37 37 36 36 36 36 37 37 38 37 37 36 36 36
Wind_Direction
280 279 278 276 276 279 279 276 275 277 279 281 282 282 282 282 282 283 283 283 281 281 281 280 280 281 283 283 282 281 281 281 281 281 281 285 287 286 284 282 281 281 280
280 280 280 279 279 278 281 280 276 276 277 278 280 281 281 282 282 282 282 281 280 279 279 279 281 281 282 282 281 281 281 281 282 283 282 283 285 286 284 283 281 281 281
281 279 278 278 279 279 279 280 280 281 280 279 279 279 280 281 282 282 281 279 277 277 278 279 281 281 282 281 280 280 280 280 281 283 284 284 284 285 284 282 281 281 281
282 281 279 279 279 278 278 278 280 282 282 283 281 279 278 280 281 281 280 279 278 277 277 278 279 281 280 280 280 280 281 282 282 281 283 284 283 284 284 283 282 282 282
281 281 280 281 281 280 279 279 280 282 282 281 282 281 280 279 279 280 279 279 277 277 276 275 276 277 277 277 279 280 280 280 282 282 282 283 284 284 283 282 281 282 282
281 280 279 278 278 279 281 283 283 283 281 281 282 282 281 278 277 277 278 277 277 277 278 275 276 276 277 277 279 279 280 279 280 281 284 285 284 283 283 282 281 282 281
280 280 278 277 278 279 281 282 283 284 281 282 282 282 280 277 276 277 276 276 275 276 276 276 276 276 277 278 279 280 280 279 280 281 283 286 284 282 282 283 282 283 280
279 278 278 278 278 278 280 281 281 283 283 285 283 280 278 276 276 277 277 275 273 274 275 275 276 277 278 277 279 280 280 278 279 280 281 284 283 281 281 282 282 283 282
280 279 278 277 277 277 278 279 279 281 282 283 284 280 277 276 275 276 277 276 274 274 274 275 275 275 276 277 278 279 280 279 279 279 281 283 283 281 281 282 282 282 282
282 280 279 278 278 278 278 278 278 280 281 282 282 280 277 277 276 276 276 275 275 274 274 275 275 274 275 277 278 278 278 279 280 279 279 281 283 283 282 281 282 281 281
281 281 280 280 280 279 278 279 279 280 280 281 281 280 278 277 276 275 275 274 275 274 274 274 273 274 275 276 277 277 277 277 277 278 278 279 280 282 283 282 282 280 280
281 281 281 280 279 279 278 279 279 279 279 280 280 280 278 277 275 275 274 274 274 273 273 273 272 272 274 275 277 277 277 277 277 278 278 278 279 281 282 282 282 281 280
281 281 281 279 279 279 279 279 279 279 280 280 280 279 278 277 275 274 273 274 275 275 274 273 272 272 273 274 275 275 277 278 278 278 279 279 279 280 281 281 282 282 280
281 281 280 279 278 279 279 280 280 280 280 280 280 280 278 276 275 274 273 273 274 274 274 273 272 272 273 273 274 274 275 277 277 277 278 278 278 279 279 279 280 281 281
280 280 281 281 280 280 281 280 280 280 280 280 279 279 278 277 275 274 274 274 274 274 273 273 273 273 273 273 274 274 275 276 276 276 277 277 278 278 278 279 279 281 281
280 281 282 283 282 282 283 281 280 280 280 280 280 280 278 277 276 275 275 275 275 274 273 273 272 272 273 273 273 275 275 276 276 276 276 276 276 278 278 279 279 280 281
280 281 281 283 283 285 284 283 282 281 281 281 280 280 279 278 276 275 274 274 274 275 274 273 273 273 273 274 274 274 274 275 275 275 275 275 275 277 279 280 279 278 278
281 282 282 283 284 284 284 284 283 282 281 281 280 279 278 277 276 275 274 273 273 273 274 273 272 273 273 273 273 272 273 273 274 274 274 274 275 276 277 279 278 277 278
282 282 283 284 285 284 283 283 283 282 282 282 280 279 278 277 276 275 275 274 273 273 273 272 273 273 272 271 272 272 272 272 274 275 275 275 275 275 276 278 279 278 278
283 284 283 284 285 286 284 283 282 282 282 281 280 279 278 277 277 276 275 274 272 272 273 272 273 273 272 271 271 271 272 272 273 274 274 274 275 276 276 278 278 277 277
284 285 285 285 286 286 285 284 283 282 282 282 281 279 278 277 276 275 274 274 273 273 272 272 272 273 273 271 271 271 272 273 274 274 273 273 274 275 276 277 277 277 276
284 285 285 286 286 286 286 284 282 281 281 282 282 280 278 277 276 275 273 274 275 274 273 272 271 272 272 272 271 271 271 273 274 274 273 273 274 275 276 276 276 276 276
285 286 286 286 286 286 284 283 282 281 281 281 280 279 277 276 276 275 275 276 277 276 274 273 272 272 273 273 272 271 271 273 273 273 273 273 273 274 275 276 275 275 276
285 286 286 286 286 285 283 282 281 280 280 279 279 278 278 277 276 275 275 275 275 276 276 275 272 272 274 274 274 273 272 273 273 272 273 274 274 274 274 274 274 274 275
286 287 287 286 285 283 283 282 280 279 279 278 278 278 278 277 276 275 274 273 273 275 276 275 273 272 273 274 275 274 274 273 273 272 272 273 273 274 274 275 274 274 274
287 288 288 287 286 284 283 282 281 280 278 277 277 277 277 276 275 274 274 274 274 274 275 275 273 273 274 275 275 274 274 273 274 274 274 274 274 274 274 274 274 274 274
Height
5827 5826 5825 5825 5824 5823 5823 5822 5821 5820 5820 5819 5818 5817 5816 5815 5814 5813 5811 5811 5810 5809 5808 5807 5806 5805 5804 5803 5802 5801 5801 5800 5799 5798 5797 5796 5795 5794 5792 5791 5790 5789 5788
5822 5821 5820 5819 5819 5818 5817 5816 5816 5815 5814 5813 5813 5812 5810 5809 5808 5807 5806 5805 5804 5803 5802 5802 5801 5800 5799 5798 5797 5796 5795 5794 5794 5792 5791 5790 5789 5788 5787 5786 5784 5783 5782
5816 5816 5815 5814 5813 5813 5812 5811 5810 5809 5808 5807 5807 5806 5805 5804 5802 5801 5800 5799 5798 5797 5796 5796 5795 5794 5793 5792 5791 5790 5790 5789 5788 5787 5785 5784 5783 5782 5781 5780 5778 5777 5775
5811 5810 5809 5809 5808 5807 5806 5805 5805 5803 5802 5801 5800 5799 5798 5797 5796 5794 5793 5792 5791 5790 5790 5789 5789 5788 5787 5786 5785 5784 5783 5783 5782 5781 5779 5778 5777 5776 5774 5773 5772 5770 5769
5805 5804 5803 5803 5802 5801 5800 5799 5798 5797 5796 5795 5794 5793 5791 5790 5789 5787 5786 5785 5784 5784 5783 5782 5782 5781 5780 5779 5779 5778 5777 5776 5775 5774 5773 5772 5770 5769 5768 5766 5765 5763 5762
5799 5798 5797 5796 5796 5795 5794 5793 5792 5791 5789 5788 5787 5785 5784 5783 5782 5781 5779 5779 5778 5777 5776 5775 5775 5774 5773 5773 5772 5771 5770 5769 5768 5767 5766 5765 5763 5762 5761 5759 5758 5756 5755
5793 5792 5791 5790 5789 5788 5787 5786 5785 5784 5782 5781 5779 5778 5776 5775 5774 5773 5772 5771 5771 5770 5769 5769 5768 5767 5766 5765 5764 5764 5763 5762 5762 5760 5759 5758 5756 5755 5754 5752 5750 5749 5748
5786 5785 5784 5783 5782 5781 5780 5779 5778 5777 5775 5773 5772 5770 5769 5767 5766 5765 5764 5763 5763 5762 5761 5761 5760 5760 5759 5758 5757 5756 5756 5755 5754 5753 5752 5750 5749 5747 5746 5745 5743 5742 5740
5779 5777 5776 5775 5774 5774 5773 5772 5770 5769 5767 5766 5764 5762 5761 5759 5758 5757 5756 5755 5754 5754 5753 5753 5752 5751 5751 5750 5749 5748 5748 5747 5745 5744 5743 5742 5741 5739 5738 5737 5735 5734 5733
5771 5770 5768 5767 5766 5765 5764 5763 5762 5761 5759 5757 5755 5754 5752 5751 5750 5749 5747 5746 5746 5745 5744 5744 5743 5742 5742 5741 5740 5740 5739 5738 5737 5736 5735 5733 5732 5731 5729 5728 5727 5725 5724
5763 5761 5760 5759 5758 5757 5756 5754 5753 5752 5750 5748 5747 5745 5744 5742 5741 5739 5738 5737 5737 5736 5735 5734 5734 5733 5732 5732 5731 5731 5730 5729 5728 5727 5726 5724 5723 5722 5720 5719 5718 5716 5715
5754 5753 5752 5750 5749 5748 5747 5745 5744 5742 5741 5739 5737 5736 5734 5733 5731 5730 5729 5728 5727 5726 5725 5725 5724 5724 5723 5722 5721 5721 5720 5719 5718 5717 5716 5715 5714 5713 5711 5709 5708 5707 5705
5745 5744 5742 5741 5740 5738 5737 5736 5734 5733 5731 5729 5728 5726 5724 5722 5721 5720 5719 5718 5717 5716 5715 5715 5714 5714 5713 5712 5711 5711 5710 5709 5708 5707 5706 5705 5704 5703 5701 5699 5698 5697 5695
5735 5734 5733 5731 5730 5729 5727 5726 5724 5723 5721 5719 5717 5716 5714 5712 5711 5709 5708 5707 5706 5705 5704 5704 5703 5703 5702 5702 5701 5700 5699 5698 5697 5697 5696 5695 5693 5692 5691 5690 5688 5687 5685
5726 5724 5723 5721 5720 5719 5717 5715 5714 5712 5710 5708 5707 5705 5703 5702 5700 5698 5697 5696 5695 5694 5693 5692 5692 5692 5691 5691 5690 5689 5688 5687 5686 5685 5684 5683 5682 5681 5680 5679 5677 5676 5675
5715 5714 5712 5711 5709 5708 5706 5704 5702 5701 5699 5697 5695 5693 5692 5690 5688 5686 5685 5684 5683 5682 5682 5681 5681 5680 5680 5679 5679 5678 5677 5676 5675 5674 5673 5672 5671 5670 5669 5668 5666 5665 5664
5704 5703 5702 5700 5698 5696 5695 5693 5691 5689 5686 5684 5683 5681 5679 5678 5676 5674 5673 5672 5671 5671 5670 5670 5669 5669 5668 5668 5667 5666 5666 5665 5664 5663 5662 5661 5660 5659 5658 5657 5655 5654 5653
5693 5691 5690 5688 5686 5685 5683 5681 5679 5677 5675 5672 5670 5668 5667 5665 5664 5662 5661 5661 5660 5659 5659 5658 5658 5657 5657 5656 5655 5655 5654 5653 5653 5652 5651 5650 5649 5648 5647 5646 5644 5643 5642
5681 5680 5678 5676 5674 5672 5670 5668 5666 5664 5663 5661 5659 5657 5655 5653 5652 5651 5649 5649 5649 5648 5647 5647 5646 5646 5645 5644 5643 5643 5643 5642 5641 5640 5639 5639 5638 5636 5635 5634 5633 5631 5630
5670 5668 5667 5665 5663 5660 5658 5656 5654 5652 5650 5649 5647 5645 5643 5641 5640 5639 5638 5637 5636 5636 5635 5634 5634 5633 5633 5632 5631 5631 5631 5630 5629 5628 5628 5627 5626 5624 5623 5622 5621 5619 5618
5659 5657 5655 5653 5651 5648 5646 5644 5642 5640 5638 5636 5635 5633 5631 5629 5628 5627 5626 5625 5624 5623 5622 5622 5621 5620 5620 5619 5619 5619 5618 5618 5617 5616 5615 5614 5613 5612 5611 5610 5608 5607 5606
5647 5645 5642 5640 5638 5636 5633 5631 5629 5627 5625 5623 5622 5620 5618 5616 5615 5615 5613 5613 5612 5610 5609 5609 5608 5608 5607 5607 5606 5606 5606 5605 5605 5604 5603 5602 5601 5600 5599 5597 5597 5595 5594
5634 5632 5630 5627 5625 5623 5620 5618 5616 5614 5613 5611 5609 5607 5605 5604 5603 5602 5601 5600 5599 5598 5597 5596 5596 5595 5595 5594 5593 5593 5593 5593 5592 5591 5590 5589 5588 5587 5586 5585 5584 5583 5582
5621 5619 5617 5614 5612 5609 5607 5605 5603 5601 5600 5598 5596 5594 5593 5592 5591 5590 5589 5588 5587 5586 5584 5583 5583 5583 5582 5582 5581 5581 5580 5580 5579 5578 5577 5576 5576 5575 5574 5573 5572 5571 5570
5608 5605 5603 5601 5598 5596 5594 5592 5590 5588 5587 5585 5583 5582 5580 5579 5578 5577 5576 5575 5574 5573 5572 5571 5571 5570 5570 5569 5568 5568 5567 5567 5566 5565 5565 5564 5563 5562 5561 5560 5559 5558 5557
5595 5592 5590 5588 5585 5583 5581 5579 5577 5576 5574 5572 5570 5569 5567 5566 5565 5564 5563 5562 5562 5561 5560 5559 5559 5558 5558 5557 5556 5556 5555 5554 5553 5552 5551 5551 5550 5550 5549 5548 5547 5546 5545